Powrót do katalogu

SL-16 DEB

AktywnyLEO
NORAD 22358·DEBRIS·🇷🇺 Russia

Wystrzelony Dec 25, 1992 z Baikonur Cosmodrome

Loading…

Następne Przeloty (najbliższe 24 godziny)

TLE

ŚwieżeSource: Space-Track

Epoka: Sep 14, 2026, 11:09 UTC

1 22358U 92093AX  26257.46523916  .00000009  00000-0  42321-4 0  9996
2 22358  71.2275  62.2149 0147528 242.6298 146.4241 13.84979736703201

Śledź SL-16 DEB w czasie rzeczywistym z AllMySat

Download on the App Store